Flag for U.S.A. Weather past 2 weeks in Palm Springs, California, U.S.A.

Now
80 °F

Clear.


Feels Like: 80 °F
Forecast: 79 / 93 °F
Wind: 12 mph from Northwest

Location: Palm Springs Regional Airport

Current Time: Aug 21, 2014 at 4:08:56 AM

Latest Report: Aug 21, 2014 at 2:53 AM


Visibility: 10 mi

Pressure: 29.83 "Hg

Humidity: 44%

Dew point: 56 °F

Location of Palm SpringsLocation

Historic Weather in Palm Springs — Graph

°F

Palm Springs temperature yesterday

Maximum temperature yesterday: 96 °F (at 2:53 PM)
Minimum temperature yesterday: 79 °F (at 3:53 AM)
Average temperature yesterday: 87 °F

Past Weeks' High & Low Weather Summary

 TemperatureHumidityPressure
High112 °F (Aug 17, 4:53 PM)68% (Aug 13, 4:53 AM)29.94 "Hg (Aug 13, 4:53 AM)
Low74 °F (Aug 7, 6:53 AM)5% (Aug 7, 3:53 PM)29.66 "Hg (Aug 19, 4:53 PM)
Average92 °F29%29.83 "Hg
* Reported Aug 6 2:53 AM — Aug 21 2:53 AM, Palm Springs, Weather by CustomWeather, © 2014

Note: Actual official high and low records may vary slightly from our data, if they occured in-between our weather recording intervals... More about our weather records

Advertising

Palm Springs weather history for previous 24 hours

 ConditionsComfort  
Time TempWeatherWind HumidityBarometerVisibility
2:53 AM
Aug 21
80 °FClear.12 mph44%29.83 "Hg10 mi
1:53 AM82 °FClear.10 mph40%29.83 "Hg10 mi
12:53 AM83 °FClear.3 mph38%29.83 "Hg10 mi
11:53 PM
Aug 20
84 °FClear.3 mph35%29.83 "Hg10 mi
10:53 PM86 °FClear.10 mph32%29.82 "Hg10 mi
9:53 PM88 °FClear.9 mph29%29.81 "Hg10 mi
8:53 PM88 °FClear.13 mph29%29.80 "Hg10 mi
7:53 PM89 °FSunny.17 mph28%29.78 "Hg10 mi
6:53 PM92 °FSunny.20 mph26%29.77 "Hg10 mi
5:53 PM95 °FSunny.12 mph23%29.77 "Hg10 mi
4:53 PM96 °FSunny.14 mph23%29.78 "Hg10 mi
3:53 PM96 °FSunny.14 mph21%29.79 "Hg10 mi
2:53 PM96 °FScattered clouds.13 mph20%29.80 "Hg10 mi
1:53 PM93 °FScattered clouds.14 mph24%29.83 "Hg10 mi
12:53 PM92 °FBroken clouds.8 mph23%29.85 "Hg10 mi
11:53 AM91 °FPartly sunny.8 mph28%29.87 "Hg10 mi
10:53 AM87 °FSunny.6 mph32%29.87 "Hg10 mi
9:53 AM82 °FBroken clouds.15 mph40%29.88 "Hg10 mi
8:53 AM83 °FPartly sunny.6 mph32%29.86 "Hg10 mi
7:53 AM83 °FBroken clouds.No wind31%29.84 "Hg10 mi
6:53 AM79 °FPartly cloudy.7 mph36%29.82 "Hg10 mi
5:53 AM80 °FPartly cloudy.6 mph34%29.80 "Hg10 mi
4:53 AM80 °FClear.No wind35%29.78 "Hg10 mi
Weather by CustomWeather, © 2014

See weather overviewHow to use our weather pages